Regional Weather Roundup
Issued by NWS State College, PA

Home | Current Version | Previous Version | Text Only | Print | Product List | Glossary On
Versions: 1 2 3 4 5 6 7 8 9 10 11 12 13 14 15 16 17 18 19 20 21 22 23 24 25 26 27 28 29 30 31 32 33 34 35 36 37 38 39 40 41 42 43 44 45 46 47 48 49 50
945
ASUS41 KCTP 210603
RWRCTP

REGIONAL WEATHER ROUNDUP
NATIONAL WEATHER SERVICE STATE COLLEGE PA
100 AM EST WED FEB 21 2018

Note: "fair" indicates few or no clouds below 12,000 feet with no
significant weather and/or obstructions to visibility.

* = STATION THAT DOES NOT REPORT PRECIPITATION /E.G. RAIN...SNOW...ETC/
    THUNDER OR FOG.

PAZ002>004-007>009-013>016-020>023-029>032-210700-
WESTERN PENNSYLVANIA

CITY           SKY/WX    TMP DP  RH WIND       PRES   REMARKS
ERIE           FAIR      70  52  52 S22G30    30.08F
MEADVILLE      FAIR      65  51  60 S15G22    30.14F
FRANKLIN*      FAIR      65  50  58 SW10      30.18S
NEW CASTLE     FAIR      67  52  58 S7        30.17F
BEAVER COUNTY  NOT AVBL
BUTLER*        FAIR      65  50  58 S8        30.20S
PITTSBURGH INT MOCLDY    67  50  54 S7        30.19F
PITTSBURGH     FAIR      64  47  53 S12       30.21S
INDIANA*       CLEAR     55  50  82 CALM      30.26S
LATROBE        FAIR      63  50  63 SW13      30.24S
WASHINGTON CO* FAIR      65  50  58 S7        30.24S
$$

PAZ004>006-010>012-017>019-024>028-033>037-041-042-045-046-049>053-210700-
CENTRAL PENNSYLVANIA

CITY           SKY/WX    TMP DP  RH WIND       PRES   REMARKS
BRADFORD       FAIR      63  50  62 SW6       30.20S
DUBOIS         FAIR      64  47  53 SW9       30.21R
CLEARFIELD     FAIR      48  48 100 N3        30.23R
JOHNSTOWN      FAIR      63  50  62 SW10      30.26S
ALTOONA        FAIR      58  51  78 SW5       30.27S
STATE COLLEGE  FAIR      59  53  79 SW6       30.25S
WILLIAMSPORT   FAIR      40  40 100 CALM      30.25R FOG
SELINSGROVE    FAIR      44  42  93 CALM      30.26S
FT INDIANTOWN  FOG       45  45 100 CALM      30.29S VSB 3/8
CAPITAL CITY   FAIR      63  55  75 CALM      30.28S
HARRISBURG     FAIR      55  50  83 VRB3      30.28S
YORK           FAIR      62  56  80 S6        30.29S
$$

PAZ038>040-043-044-047-048-054-055-060>062-067>071-210700-
EASTERN PENNSYLVANIA

CITY           SKY/WX    TMP DP  RH WIND       PRES   REMARKS
SCRANTON       FAIR      57  53  86 NW7       30.27R
MOUNT POCONO   FAIR      55  54  96 SW9       30.30F
ALLENTOWN      FOG       43  41  93 CALM      30.30F VSB 1/4
QUAKERTOWN*    CLEAR     57  57 100 CALM      30.31F
READING        FAIR      59  56  89 S9        30.29S
LANCASTER      FAIR      54  54 100 E3        30.30F
COATESVILLE    FAIR      59 N/A N/A S6        30.33F
POTTSTOWN      FAIR      59  57  93 S5        30.33S
BLUE BELL      FAIR      57  57 100 SW8       30.33F
DOYLESTOWN     FAIR      59  57  93 S3        30.31S
WILLOW GROVE   NOT AVBL
NORTH PHILA    FAIR      61  58  90 S6        30.34F
PHILADELPHIA   FAIR      58  57  97 S7        30.34S
$$




USA.gov is the U.S. government's official web portal to all federal, state and local government web resources and services.